This is the latest recevied weather packets stored in our database for station/object WX5KDM. If no packets are shown the sender has not sent any weather packets the latest 10 day(s).
| Time | Temp. | Humidity | Pressure | Rain* | Wind** | Luminosity | Snow |
|---|---|---|---|---|---|---|---|
| 1788221198 | 32.22° C | 63% | 1017.3 hPa | 0 mm | - | - | - |
| 1788220894 | 32.22° C | 61% | 1017.2 hPa | 0 mm | - | - | - |
| 1788220592 | 32.78° C | 60% | 1017.3 hPa | 0 mm | - | - | - |
| 1788220288 | 32.78° C | 59% | 1017.1 hPa | 0 mm | - | - | - |
| 1788219987 | 33.33° C | 58% | 1017.3 hPa | 0 mm | - | - | - |
| 1788219683 | 33.33° C | 57% | 1017.3 hPa | 0 mm | - | - | - |
| 1788219378 | 33.89° C | 55% | 1017.1 hPa | 0 mm | - | - | - |
| 1788219073 | 34.44° C | 54% | 1017.3 hPa | 0 mm | - | - | - |
| 1788218769 | 34.44° C | 53% | 1017.3 hPa | 0 mm | - | - | - |
| 1788218464 | 34.44° C | 54% | 1017.3 hPa | 0 mm | - | - | - |
| 1788218161 | 34.44° C | 53% | 1017.3 hPa | 0 mm | - | - | - |
| 1788217875 | 34.44° C | 54% | 1017.1 hPa | 0 mm | - | - | - |
| 1788217551 | 34.44° C | 53% | 1017.2 hPa | 0 mm | - | - | - |
| 1788217246 | 34.44° C | 53% | 1017.1 hPa | 0 mm | - | - | - |
| 1788216960 | 34.44° C | 55% | 1017.3 hPa | 0 mm | - | - | - |
| 1788216636 | 34.44° C | 53% | 1017.2 hPa | 0 mm | - | - | - |
| 1788216331 | 35° C | 54% | 1017.2 hPa | 0 mm | - | - | - |
| 1788216026 | 34.44° C | 54% | 1017.2 hPa | 0 mm | - | - | - |
| 1788215721 | 33.33° C | 57% | 1017.3 hPa | 0 mm | - | - | - |
| 1788215418 | 33.33° C | 57% | 1017.2 hPa | 0 mm | - | - | - |
| 1788215114 | 33.89° C | 59% | 1017.4 hPa | 0 mm | - | - | - |
| 1788214813 | 33.89° C | 57% | 1017.4 hPa | 0 mm | - | - | - |
| 1788214509 | 34.44° C | 55% | 1017.5 hPa | 0 mm | - | - | - |
| 1788214204 | 34.44° C | 55% | 1017.3 hPa | 0 mm | - | - | - |
| 1788213899 | 34.44° C | 52% | 1017.5 hPa | 0 mm | - | - | - |
* Rain latest hour (hover to see other rain measurements)
** Current wind speed in m/s (hover to see current wind gust speed)